THORAD DELTA 1 DEB, 14879

Orbit data source: Space-Track

THORAD DELTA 1 DEB, 14879 is space debris in SSO originally from a launch on Fri, 15 Nov 1974 UTC launched from the Air Force Western Test Range (AFWTR). Debris objects in space refer to the collection of defunct objects orbiting the Earth. Examples of debris include non-operational satellites, rocket bodies, and fragments generated from explosions, collisions, or faulty payload assembly.

Loading next visibility...
Identifier
14879, 1974-089ES
Orbit
SSO
Country
Flag of USUS
Related business
Manufacturer
Unknown
Mission
Spacecraft
Bus & Motor
Unknown
Mass
Unknown
Launch date (UTC)
1974-11-15 (52 years ago)
Launch vehicle
Unknown
Launch site
Air Force Western Test Range (AFWTR)
Object type
Payload
Rocket body
Debris
Shape & HBR
Unknown shape, 0.1 m
Radar Cross Section
Medium (>0.1 m² and <1 m²)

Expand to show TLE details & history
Last TLE update: 2 days ago

TLE from 2 days ago
0 THORAD DELTA 1 DEB
1 14879U 74089ES  26162.02334870  .00000059  00000-0  91155-3 0  9999
2 14879 101.2895  84.0812 0214824  93.0502 289.0778 12.15619022556534
Epoch: 2026-06-11T00:33Z
TLE epoch observation values (Epoch: 2026-06-11T00:33:37.327Z)
Latitude
19.38513°
Longitude
172.29429°
Altitude
1,561.012 km
Speed
7.112 km/s
True Right ascension
05h 20m 17s
True Declination
19° 17' 19"
Sunlit
Object was in daylight at epoch
Visualization orbit readout
Latitude
Unknown
Longitude
Unknown
Altitude
Unknown
Speed
Unknown
Apparent Right ascension
Unknown
Apparent Declination
Unknown
Sunlit
N/A
Visualization observer readout
Local Sidereal Time
12:08:49
Azimuth
Unknown
Elevation
Unknown
Doppler factor
Unknown
Orbital elements
Apogee altitude
1,780.833 km
Perigee altitude
1,437.657 km
Semi-major axis
7,987.382 km
Eccentricity
0.02148
Inclination
101.2895°
RAAN
84.0812°
Arg. of periapsis
93.0502°
True anomaly
286.73137°
Mean anomaly
289.0778°
Eccentric anomaly
287.90657°
Mean motion
3.04044 °/min
Orbital period
118.4 mins
BSTAR
0.00091155

Documentation

Showing up to 5 results
|